KB6LA Weather Reports


Display with metric or nautical units.
time (UTC)temp
F
wind
direction
speed
MPH
gust
MPH
rain 1hr
in
rain 24hr
in
rain mn
in
humidity
%
barometer
mb
20260505061420 57 251 3.0 3.0 0.00 0.00 0.00 87 1013.4
20260505060913 57 245 2.0 3.0 0.00 0.00 0.00 87 1013.4
20260505060405 58 251 2.0 4.0 0.00 0.00 0.00 86 1013.4
20260505055858 58 290 1.0 4.0 0.00 0.00 0.00 86 1013.8
20260505055351 58 227 3.0 3.0 0.00 0.00 0.00 86 1013.8
20260505054844 58 252 3.0 3.0 0.00 0.00 0.00 86 1013.8
20260505053830 58 265 1.0 3.0 0.00 0.00 0.00 86 1013.8
20260505053322 58 270 3.0 3.0 0.00 0.00 0.00 86 1013.8
20260505052814 58 240 2.0 4.0 0.00 0.00 0.00 85 1013.8
20260505052307 58 228 2.0 4.0 0.00 0.00 0.00 85 1013.8
20260505051800 58 293 2.0 4.0 0.00 0.00 0.00 85 1013.8
20260505051253 58 288 1.0 4.0 0.00 0.00 0.00 85 1013.8
20260505050746 58 285 2.0 4.0 0.00 0.00 0.00 85 1013.8
20260505050239 58 284 0.0 6.0 0.00 0.00 0.00 85 1013.8
20260505041633 58 231 4.0 6.0 0.00 0.00 0.00 85 1014.1
20260505041126 58 259 2.0 7.0 0.00 0.00 0.00 85 1014.1
20260505040619 58 244 4.0 7.0 0.00 0.00 0.00 84 1014.1
20260505040111 58 237 4.0 7.0 0.00 0.00 0.00 84 1014.1
20260505035604 58 281 4.0 8.0 0.00 0.00 0.00 84 1014.1
20260505035057 58 261 6.0 8.0 0.00 0.00 0.00 83 1014.1
20260505034549 58 242 4.0 9.0 0.00 0.00 0.00 82 1014.1
20260505034042 58 265 3.0 9.0 0.00 0.00 0.00 81 1013.8
20260505033535 58 259 7.0 9.0 0.00 0.00 0.00 80 1013.8
20260505033028 58 240 5.0 9.0 0.00 0.00 0.00 80 1013.8
20260505032520 58 253 4.0 8.0 0.00 0.00 0.00 80 1013.8
20260505032013 58 237 4.0 10.0 0.00 0.00 0.00 79 1013.8
20260505031506 58 222 8.0 10.0 0.00 0.00 0.00 80 1013.8
20260505031000 58 234 5.0 9.0 0.00 0.00 0.00 79 1013.4
20260505030451 58 246 6.0 9.0 0.00 0.00 0.00 79 1013.4
20260505025945 59 265 6.0 10.0 0.00 0.00 0.00 78 1013.4
20260505023915 59 231 5.0 11.0 0.00 0.00 0.00 78 1013.4
20260505023407 59 232 9.0 14.0 0.00 0.00 0.00 78 1013.4
20260505022900 59 258 7.0 14.0 0.00 0.00 0.00 78 1013.4
20260505022353 59 192 6.0 10.0 0.00 0.00 0.00 78 1013.4
20260505021846 59 247 7.0 14.0 0.00 0.00 0.00 79 1013.4
20260505021339 59 280 9.0 15.0 0.00 0.00 0.00 78 1013.4
20260505020831 59 230 9.0 15.0 0.00 0.00 0.00 78 1013.4
20260505020324 59 267 11.0 16.0 0.00 0.00 0.00 77 1013.4
20260505015817 59 237 11.0 17.0 0.00 0.00 0.00 76 1013.4
20260505015310 60 246 11.0 17.0 0.00 0.00 0.00 76 1013.4
20260505014803 60 252 12.0 17.0 0.00 0.00 0.00 73 1013.1
20260505014255 60 263 8.0 17.0 0.00 0.00 0.00 74 1013.4
20260505013240 60 231 12.0 15.0 0.00 0.00 0.00 74 1013.4
20260505012733 60 242 9.0 15.0 0.00 0.00 0.00 75 1013.4
20260505012226 60 277 6.0 14.0 0.00 0.00 0.00 75 1013.8
20260505011719 60 246 10.0 14.0 0.00 0.00 0.00 75 1013.8
20260505011211 60 289 5.0 15.0 0.00 0.00 0.00 75 1013.8
20260505010703 60 269 4.0 15.0 0.00 0.00 0.00 75 1013.8
20260505005649 61 248 4.0 22.0 0.00 0.00 0.00 75 1013.4
20260505005142 60 251 7.0 22.0 0.00 0.00 0.00 77 1013.8
20260505004635 60 234 8.0 18.0 0.00 0.00 0.00 77 1013.8
20260505003620 61 186 5.0 17.0 0.00 0.00 0.00 74 1013.8
20260505003113 61 234 8.0 19.0 0.00 0.00 0.00 74 1013.8
20260505002605 61 236 10.0 19.0 0.00 0.00 0.00 73 1013.8
20260505002058 61 224 4.0 16.0 0.00 0.00 0.00 75 1013.8
20260505001551 61 262 6.0 17.0 0.00 0.00 0.00 74 1013.8
20260505001044 61 273 11.0 17.0 0.00 0.00 0.00 74 1013.8
20260505000537 61 260 12.0 21.0 0.00 0.00 0.00 75 1013.8
20260505000030 60 267 13.0 21.0 0.00 0.00 0.00 75 1013.8
20260504235015 61 216 9.0 18.0 0.00 0.00 0.00 76 1013.4
20260504234508 62 240 14.0 22.0 0.00 0.00 0.00 75 1013.8
20260504233453 62 267 12.0 19.0 0.00 0.00 0.00 73 1013.4
20260504232945 62 226 11.0 19.0 0.00 0.00 0.00 73 1013.4
20260504232438 62 240 12.0 19.0 0.00 0.00 0.00 73 1013.4
20260504231931 61 251 14.0 17.0 0.00 0.00 0.00 74 1013.8
20260504231424 61 237 16.0 17.0 0.00 0.00 0.00 74 1013.8
20260504230916 62 243 11.0 18.0 0.00 0.00 0.00 75 1013.8
20260504225901 62 225 13.0 21.0 0.00 0.00 0.00 73 1013.8
20260504225354 63 263 5.0 21.0 0.00 0.00 0.00 72 1013.8
20260504224847 62 272 14.0 19.0 0.00 0.00 0.00 73 1013.8
20260504223325 63 263 13.0 22.0 0.00 0.00 0.00 71 1014.1
20260504222819 62 260 7.0 23.0 0.00 0.00 0.00 73 1014.1
20260504222311 63 237 13.0 23.0 0.00 0.00 0.00 71 1014.1
20260504221803 63 277 10.0 24.0 0.00 0.00 0.00 72 1013.8
20260504215735 62 215 8.0 18.0 0.00 0.00 0.00 71 1014.5
20260504215227 63 227 9.0 18.0 0.00 0.00 0.00 72 1014.5
20260504214720 64 252 14.0 18.0 0.00 0.00 0.00 68 1014.5
20260504214213 64 328 5.0 21.0 0.00 0.00 0.00 69 1014.8
20260504213706 63 232 7.0 21.0 0.00 0.00 0.00 69 1014.8
20260504213158 64 207 10.0 18.0 0.00 0.00 0.00 68 1014.8
20260504212651 63 181 11.0 17.0 0.00 0.00 0.00 70 1014.5
20260504212143 64 277 9.0 16.0 0.00 0.00 0.00 68 1014.5
20260504211636 63 216 6.0 19.0 0.00 0.00 0.00 68 1014.8
20260504210621 64 220 15.0 19.0 0.00 0.00 0.00 65 1014.8
20260504210114 62 310 4.0 19.0 0.00 0.00 0.00 67 1014.8
20260504205100 63 226 13.0 17.0 0.00 0.00 0.00 65 1014.8
20260504204553 64 250 8.0 18.0 0.00 0.00 0.00 65 1014.8
20260504204046 63 211 11.0 18.0 0.00 0.00 0.00 65 1014.8
20260504203537 64 232 11.0 19.0 0.00 0.00 0.00 63 1014.8
20260504203030 63 173 11.0 19.0 0.00 0.00 0.00 66 1014.8
20260504202523 63 211 13.0 18.0 0.00 0.00 0.00 63 1014.8
20260504202016 64 233 13.0 18.0 0.00 0.00 0.00 61 1014.8
20260504201509 63 223 14.0 18.0 0.00 0.00 0.00 62 1014.8
20260504201001 63 255 9.0 18.0 0.00 0.00 0.00 61 1014.5
20260504200454 64 259 9.0 19.0 0.00 0.00 0.00 60 1014.8
20260504195946 64 220 16.0 19.0 0.00 0.00 0.00 58 1014.8
20260504195440 64 210 6.0 16.0 0.00 0.00 0.00 59 1014.5
20260504194932 63 218 6.0 16.0 0.00 0.00 0.00 62 1014.8
20260504194424 63 208 10.0 17.0 0.00 0.00 0.00 62 1014.8
20260504193917 63 273 11.0 18.0 0.00 0.00 0.00 59 1014.8
20260504193410 64 175 10.0 18.0 0.00 0.00 0.00 61 1014.8
20260504192903 63 299 7.0 19.0 0.00 0.00 0.00 62 1014.8
20260504192356 63 261 11.0 19.0 0.00 0.00 0.00 60 1014.8
20260504191849 63 248 12.0 16.0 0.00 0.00 0.00 64 1014.8
20260504191341 63 257 7.0 18.0 0.00 0.00 0.00 64 1014.5
20260504190835 62 231 9.0 18.0 0.00 0.00 0.00 62 1014.8
20260504190326 63 235 10.0 17.0 0.00 0.00 0.00 61 1014.8
20260504185819 63 264 9.0 16.0 0.00 0.00 0.00 60 1014.8
20260504185312 63 258 12.0 17.0 0.00 0.00 0.00 60 1015.1
20260504184805 62 238 12.0 19.0 0.00 0.00 0.00 62 1014.8
20260504184257 61 313 7.0 19.0 0.00 0.00 0.00 65 1014.8
20260504183751 62 236 10.0 18.0 0.00 0.00 0.00 64 1014.8
20260504183243 62 238 12.0 21.0 0.00 0.00 0.00 63 1015.1
20260504182736 62 226 16.0 18.0 0.00 0.00 0.00 64 1014.8
20260504181721 62 243 6.0 18.0 0.00 0.00 0.00 66 1014.8
20260504180706 61 228 12.0 19.0 0.00 0.00 0.00 66 1015.1
20260504180159 61 233 15.0 22.0 0.00 0.00 0.00 66 1015.1
20260504175145 62 226 6.0 18.0 0.00 0.00 0.00 66 1014.8
20260504174638 62 206 13.0 18.0 0.00 0.00 0.00 66 1014.8
20260504173623 62 222 12.0 19.0 0.00 0.00 0.00 64 1014.8
20260504173115 62 226 9.0 16.0 0.00 0.00 0.00 66 1014.8
20260504172608 61 273 8.0 16.0 0.00 0.00 0.00 68 1014.8
20260504172101 61 229 9.0 15.0 0.00 0.00 0.00 66 1014.8
20260504171553 62 262 10.0 13.0 0.00 0.00 0.00 68 1014.5
20260504171046 61 208 6.0 15.0 0.00 0.00 0.00 70 1014.5
20260504160412 63 259 1.0 4.0 0.00 0.00 0.00 63 1014.1
20260504150752 61 47 2.0 3.0 0.00 0.00 0.00 70 1013.8
20260504150245 61 350 1.0 3.0 0.00 0.00 0.00 72 1014.1
20260504141132 57 248 0.0 1.0 0.00 0.00 0.00 80 1013.8
20260504140625 57 253 1.0 1.0 0.00 0.00 0.00 80 1013.8
20260504140118 57 263 0.0 1.0 0.00 0.00 0.00 80 1013.8
20260504130459 57 272 1.0 2.0 0.00 0.00 0.00 79 1013.4
20260504110711 58 289 0.0 2.0 0.00 0.00 0.00 82 1013.4
20260504100543 58 358 0.0 3.0 0.00 0.00 0.00 80 1012.8
20260504081811 58 242 2.0 4.0 0.00 0.00 0.00 82 1014.1
20260504081304 58 229 2.0 4.0 0.00 0.00 0.00 81 1014.1
20260504080757 58 231 2.0 3.0 0.00 0.00 0.00 81 1014.5
20260504080249 58 274 1.0 3.0 0.00 0.00 0.00 80 1014.5
20260504070122 58 276 1.0 8.0 0.00 0.00 0.00 79 1014.1